Regional Weather Roundup
Issued by NWS

Home | Current Version | Previous Version | Graphics & Text | Print | Product List | Glossary On
Versions: 1 2 3 4 5 6 7 8 9 10 11 12 13 14 15 16 17 18 19 20 21 22 23 24 25 26 27 28 29 30 31 32 33 34 35 36 37 38 39 40 41 42 43 44 45 46 47 48 49 50
000
ASUS43 KTOP 291459
RWRKS

WEATHER ROUNDUP FOR KANSAS
NATIONAL WEATHER SERVICE GOODLAND KS
1000 AM CDT TUE JUL 29 2014

NOTE:  "FAIR" INDICATES FEW OR NO CLOUDS BELOW 12,000 FEET WITH NO
SIGNIFICANT WEATHER AND/OR OBSTRUCTIONS TO VISIBILITY.

KSZ001>006-013>018-027>032-041>047-291600-
NORTHWEST KANSAS

CITY           SKY/WX    TMP DP  RH WIND       PRES   REMARKS
GOODLAND       PTSUNNY   74  63  68 S12       30.23R
HAYS           SUNNY     73  57  56 SE13      30.21S
RUSSELL        SUNNY     75  57  53 SE13      30.20S
$$

KSZ061>065-074>080-084>089-291600-
SOUTHWEST KANSAS

CITY           SKY/WX    TMP DP  RH WIND       PRES   REMARKS
DODGE CITY     SUNNY     77  56  48 S15       30.21S
ELKHART          N/A     67  61  81 S14         N/A
GARDEN CITY    MOSUNNY   75  60  59 S14       30.21S
GREAT BEND     SUNNY     73  57  56 SE12      30.20S
LIBERAL        CLOUDY    68  59  73 S13       30.25S
PRATT          SUNNY     72  55  56 SE8       30.22R
$$

KSZ066>073-081>083-090>101-291600-
SOUTHEAST KANSAS

CITY           SKY/WX    TMP DP  RH WIND       PRES   REMARKS
CHANUTE        CLOUDY    73  61  65 CALM      30.20R
COFFEYVILLE    MOSUNNY   76  61  59 S3        30.18S
HUTCHINSON     SUNNY     73  59  61 SE12      30.20F
NEWTON         MOSUNNY   73  55  53 SE9       30.24S
PARSONS        PTSUNNY   74  60  61 SW3       30.20S
WICHITA INTL   MOSUNNY   76  60  57 SE8       30.20S
WICHITA JABRA  MOSUNNY   76  60  57 SE7       30.20S
WINFIELD       SUNNY     78  61  55 SE10      30.20S
$$

KSZ007>012-019>026-033>040-048>060-102>105-291600-
NORTHEAST KANSAS

CITY           SKY/WX    TMP DP  RH WIND       PRES   REMARKS
CONCORDIA      CLOUDY    67  59  75 NE3       30.23S
EMPORIA        PTSUNNY   72  58  61 SE5       30.20F
LAWRENCE       MOSUNNY   75  59  57 VRB3      30.19S
MANHATTAN      CLOUDY    71  57  61 W5        30.21S
OLATHE IND     MOSUNNY   73  59  61 CALM      30.19F
OLATHE EXE     SUNNY     73  59  61 VRB5      30.18S
SALINA         SUNNY     75  55  49 SE8       30.21S
TOPEKA BILLARD PTSUNNY   74  59  59 CALM      30.20R
TOPEKA FORBES  CLOUDY    75  57  53 VRB5      30.20R
$$


USA.gov is the U.S. government's official web portal to all federal, state and local government web resources and services.